When you browse on this site, cookies collect data to enhance your experience and personalize the content and advertising you see.
Visit our Privacy Policy to learn more. By continuing to use the site, you agree to this use of cookies and data.
  • în România
  • Lista ţărilor
  • Pe 7 zile
  • Temperatura apei
  • Meteo pe hartă
  • Widget-uri
  • user-avatar
    Intrare

    Meteo pe oră la Dumfries

    Astăzi, 26 Februarie, Miercuri

    Timp Temperatura Precipitaţii Vânt Presiune Umiditate
    00:00 -1°C° 0 mm 2 m/s 740 mmHg 92%
    01:00 -1°C° 0 mm 2 m/s 741 mmHg 92%
    02:00 +1°C° 0 mm 1 m/s 741 mmHg 91%
    03:00 +1°C° 0 mm 1 m/s 741 mmHg 90%
    04:00 +1°C° 0 mm 1 m/s 742 mmHg 90%
    05:00 0°C° 0 mm 1 m/s 742 mmHg 89%
    06:00 -1°C° 0 mm 2 m/s 743 mmHg 92%
    07:00 -1°C° 0.1 mm 3 m/s 744 mmHg 90%
    08:00 -1°C° 0.1 mm 4 m/s 745 mmHg 88%
    09:00 0°C° 0.1 mm 4 m/s 745 mmHg 85%
    10:00 +1°C° 0 mm 5 m/s 746 mmHg 76%
    11:00 +2°C° 0 mm 6 m/s 746 mmHg 67%
    12:00 +3°C° 0 mm 7 m/s 746 mmHg 58%
    13:00 +2°C° 0 mm 7 m/s 747 mmHg 57%
    14:00 +2°C° 0 mm 6 m/s 747 mmHg 57%
    15:00 +2°C° 0 mm 6 m/s 747 mmHg 57%
    16:00 +1°C° 0 mm 5 m/s 746 mmHg 67%
    17:00 0°C° 0 mm 4 m/s 746 mmHg 77%
    18:00 0°C° 0 mm 3 m/s 746 mmHg 88%
    19:00 0°C° 0.1 mm 3 m/s 746 mmHg 89%
    20:00 +1°C° 0.1 mm 2 m/s 746 mmHg 90%
    21:00 -1°C° 0.1 mm 2 m/s 745 mmHg 91%
    22:00 -1°C° 0.1 mm 2 m/s 745 mmHg 93%
    23:00 -1°C° 0.1 mm 2 m/s 744 mmHg 94%

    Mâine, 27 Februarie, Joi

    Timp Temperatura Precipitaţii Vânt Presiune Umiditate
    00:00 -1°C° 0.1 mm 2 m/s 744 mmHg 96%
    01:00 -1°C° 0.1 mm 2 m/s 744 mmHg 95%
    02:00 -1°C° 0.1 mm 2 m/s 743 mmHg 94%
    03:00 -1°C° 0.1 mm 2 m/s 743 mmHg 94%
    04:00 -1°C° 0 mm 2 m/s 743 mmHg 94%
    05:00 -1°C° 0 mm 2 m/s 742 mmHg 94%
    06:00 -1°C° 0 mm 2 m/s 742 mmHg 94%
    07:00 -1°C° 0 mm 2 m/s 743 mmHg 89%
    08:00 0°C° 0 mm 3 m/s 743 mmHg 84%
    09:00 0°C° 0 mm 3 m/s 743 mmHg 80%
    10:00 +1°C° 0 mm 4 m/s 743 mmHg 74%
    11:00 +2°C° 0 mm 5 m/s 743 mmHg 68%
    12:00 +3°C° 0 mm 6 m/s 744 mmHg 62%
    13:00 +3°C° 0 mm 6 m/s 744 mmHg 62%
    14:00 +3°C° 0 mm 6 m/s 744 mmHg 62%
    15:00 +3°C° 0 mm 7 m/s 745 mmHg 63%
    16:00 +2°C° 0 mm 6 m/s 745 mmHg 68%
    17:00 +1°C° 0 mm 5 m/s 746 mmHg 73%
    18:00 0°C° 0 mm 4 m/s 747 mmHg 78%
    19:00 -1°C° 0 mm 4 m/s 747 mmHg 79%
    20:00 -1°C° 0 mm 4 m/s 748 mmHg 80%
    21:00 -1°C° 0 mm 4 m/s 749 mmHg 81%
    22:00 0°C° 0 mm 3 m/s 749 mmHg 82%
    23:00 0°C° 0 mm 3 m/s 750 mmHg 83%

    Poimâine, 28 Februarie, Vineri

    Timp Temperatura Precipitaţii Vânt Presiune Umiditate
    00:00 -1°C° 0 mm 2 m/s 750 mmHg 85%
    01:00 +1°C° 0 mm 2 m/s 750 mmHg 86%
    02:00 +1°C° 0 mm 2 m/s 750 mmHg 88%
    03:00 0°C° 0 mm 3 m/s 749 mmHg 89%
    04:00 +1°C° 0 mm 2 m/s 749 mmHg 89%
    05:00 +1°C° 0 mm 2 m/s 749 mmHg 89%
    06:00 +1°C° 0 mm 2 m/s 748 mmHg 89%
    07:00 +1°C° 0 mm 3 m/s 748 mmHg 87%
    08:00 +1°C° 0 mm 3 m/s 747 mmHg 85%
    09:00 +2°C° 0 mm 3 m/s 747 mmHg 83%
    10:00 +2°C° 0.3 mm 3 m/s 746 mmHg 86%
    11:00 +2°C° 0.3 mm 3 m/s 746 mmHg 89%
    12:00 +2°C° 0.3 mm 3 m/s 745 mmHg 92%
    13:00 +2°C° 0.3 mm 3 m/s 744 mmHg 91%
    14:00 +2°C° 0.3 mm 3 m/s 743 mmHg 90%
    15:00 +3°C° 0.3 mm 2 m/s 742 mmHg 90%
    16:00 +3°C° 0.4 mm 2 m/s 741 mmHg 92%
    17:00 +3°C° 0.4 mm 2 m/s 740 mmHg 95%
    18:00 +2°C° 0.4 mm 2 m/s 739 mmHg 97%
    19:00 +2°C° 0.2 mm 2 m/s 738 mmHg 98%
    20:00 +2°C° 0.2 mm 2 m/s 737 mmHg 98%
    21:00 +2°C° 0.2 mm 2 m/s 736 mmHg 98%
    22:00 +3°C° 0.1 mm 2 m/s 735 mmHg 98%
    23:00 +3°C° 0.1 mm 2 m/s 734 mmHg 98%

    29 Februarie, Sâmbătă

    Timp Temperatura Precipitaţii Vânt Presiune Umiditate
    00:00 +3°C° 0.1 mm 2 m/s 733 mmHg 98%
    01:00 +3°C° 1.2 mm 2 m/s 731 mmHg 98%
    02:00 +2°C° 1.2 mm 3 m/s 729 mmHg 98%
    03:00 +3°C° 1.2 mm 3 m/s 727 mmHg 98%
    04:00 +3°C° 1.7 mm 3 m/s 725 mmHg 98%
    05:00 +3°C° 1.7 mm 3 m/s 724 mmHg 98%
    06:00 +5°C° 1.7 mm 2 m/s 722 mmHg 98%
    07:00 +5°C° 0.5 mm 2 m/s 721 mmHg 97%
    08:00 +5°C° 0.5 mm 3 m/s 721 mmHg 97%
    09:00 +5°C° 0.5 mm 3 m/s 720 mmHg 96%
    10:00 +5°C° 0.1 mm 3 m/s 720 mmHg 92%
    11:00 +5°C° 0.1 mm 4 m/s 720 mmHg 88%
    12:00 +5°C° 0.1 mm 5 m/s 720 mmHg 84%
    13:00 +5°C° 0 mm 4 m/s 719 mmHg 82%
    14:00 +5°C° 0 mm 3 m/s 719 mmHg 80%
    15:00 +5°C° 0 mm 3 m/s 718 mmHg 78%
    16:00 +5°C° 0.1 mm 2 m/s 718 mmHg 81%
    17:00 +5°C° 0.1 mm 1 m/s 717 mmHg 84%
    18:00 +3°C° 0.1 mm 0 m/s 717 mmHg 87%
    19:00 +4°C° 0 mm 1 m/s 717 mmHg 90%
    20:00 +4°C° 0 mm 1 m/s 718 mmHg 92%
    21:00 +2°C° 0 mm 2 m/s 718 mmHg 94%
    22:00 +3°C° 0.4 mm 2 m/s 719 mmHg 95%
    23:00 +2°C° 0.4 mm 3 m/s 719 mmHg 96%

    1 Martie, Duminică

    Timp Temperatura Precipitaţii Vânt Presiune Umiditate
    00:00 +1°C° 0.4 mm 4 m/s 720 mmHg 97%
    01:00 +1°C° 0.8 mm 5 m/s 721 mmHg 95%
    02:00 0°C° 0.8 mm 7 m/s 722 mmHg 93%
    03:00 0°C° 0.8 mm 9 m/s 722 mmHg 92%
    04:00 0°C° 0.2 mm 9 m/s 723 mmHg 89%
    05:00 0°C° 0.2 mm 8 m/s 724 mmHg 86%
    06:00 0°C° 0.2 mm 8 m/s 725 mmHg 83%
    07:00 0°C° 0 mm 8 m/s 726 mmHg 80%
    08:00 0°C° 0 mm 8 m/s 727 mmHg 76%
    09:00 0°C° 0 mm 8 m/s 727 mmHg 73%
    10:00 +1°C° 0.1 mm 8 m/s 728 mmHg 72%
    11:00 +1°C° 0.1 mm 8 m/s 729 mmHg 71%
    12:00 +2°C° 0.1 mm 8 m/s 730 mmHg 70%
    13:00 +2°C° 0.3 mm 8 m/s 730 mmHg 73%
    14:00 +2°C° 0.3 mm 8 m/s 731 mmHg 75%
    15:00 +3°C° 0.3 mm 7 m/s 732 mmHg 78%
    16:00 +2°C° 0.1 mm 6 m/s 733 mmHg 79%
    17:00 +1°C° 0.1 mm 5 m/s 733 mmHg 80%
    18:00 +1°C° 0.1 mm 3 m/s 734 mmHg 81%
    19:00 +1°C° 0 mm 3 m/s 734 mmHg 83%
    20:00 +1°C° 0 mm 2 m/s 735 mmHg 85%
    21:00 -1°C° 0 mm 2 m/s 735 mmHg 88%
    22:00 +1°C° 0 mm 1 m/s 735 mmHg 88%
    23:00 +1°C° 0 mm 1 m/s 735 mmHg 88%

    2 Martie, Luni

    Timp Temperatura Precipitaţii Vânt Presiune Umiditate
    00:00 0°C° 0 mm 0 m/s 735 mmHg 88%
    01:00 +1°C° 0.2 mm 1 m/s 736 mmHg 89%
    02:00 +1°C° 0.2 mm 1 m/s 736 mmHg 90%
    03:00 +1°C° 0.2 mm 1 m/s 736 mmHg 92%
    04:00 +1°C° 0.5 mm 2 m/s 736 mmHg 93%
    05:00 +1°C° 0.5 mm 2 m/s 736 mmHg 94%
    06:00 +1°C° 0.5 mm 2 m/s 737 mmHg 96%
    07:00 +1°C° 0.3 mm 2 m/s 737 mmHg 94%
    08:00 +2°C° 0.3 mm 2 m/s 738 mmHg 93%
    09:00 +2°C° 0.3 mm 2 m/s 738 mmHg 91%
    10:00 +3°C° 0 mm 2 m/s 739 mmHg 87%
    11:00 +4°C° 0 mm 2 m/s 740 mmHg 83%
    12:00 +4°C° 0 mm 2 m/s 741 mmHg 79%
    13:00 +5°C° 0 mm 2 m/s 741 mmHg 77%
    14:00 +5°C° 0 mm 2 m/s 742 mmHg 75%
    15:00 +6°C° 0 mm 2 m/s 743 mmHg 72%
    16:00 +5°C° 0 mm 1 m/s 743 mmHg 76%
    17:00 +4°C° 0 mm 1 m/s 744 mmHg 80%
    18:00 +3°C° 0 mm 1 m/s 745 mmHg 84%
    19:00 +3°C° 0 mm 1 m/s 746 mmHg 85%
    20:00 +2°C° 0 mm 1 m/s 747 mmHg 85%
    21:00 +1°C° 0 mm 0 m/s 748 mmHg 85%
    22:00 +1°C° 0 mm 0 m/s 749 mmHg 86%
    23:00 0°C° 0 mm 0 m/s 749 mmHg 87%
    Arată mai mult